552  
ASUS41 KLWX 241011  
RWRLWX  
 
REGIONAL WEATHER ROUNDUP  
NATIONAL WEATHER SERVICE BALTIMORE MD/WASHINGTON DC  
600 AM EDT THU AUG 24 2017  
 
NOTE: "FAIR" INDICATES FEW OR NO CLOUDS BELOW 12,000 FEET  
WITH NO SIGNIFICANT WEATHER AND/OR S TO VISIBILITY
.  
TC=TEMPERATURE CELSIUS  
 
* =NON NWS SITE. STATION DOES NOT REPORT PRECIPITATION (E.G. RAIN,  
SNOW, ETC.), THUNDER, OR FOG.
 
 
DCZ001-MDZ009-015-VAZ040>042-051-053>054-241100-  
WASHINGTON METRO  
 
CITY SKY/WX TMP DP RH WIND PRES REMARKS
 
WASHINGTON NAT CLOUDY 73 58 59 NW8 29.94R  
DULLES CLOUDY 66 60 81 NW3 29.96R  
ANDREWS AFB CLOUDY 68 58 71 N3 29.93R  
FT BELVOIR CLOUDY 69 58 68 NW5 29.94R  
QUANTICO CLOUDY 70 59 68 CALM 29.95R  
COLLEGE PARK* CLOUDY 66 60 79 CALM 29.94R  
LEESBURG* CLOUDY 66 61 82 N3 29.97R  
MANASSAS* CLOUDY 68 59 73 N3 29.96R  
GAITHERSBURG* CLOUDY 64 59 83 CALM 29.97R  
 

 
 
MDZ006>007-011-014-241100-  
BALTIMORE METRO  
 
CITY SKY/WX TMP DP RH WIND PRES REMARKS
 
BWI AIRPORT CLOUDY 67 59 75 NW3 29.94R  
MD SCIENCE CTR N/A 72 56 57 MISG 29.94R  
MARTIN STATE CLOUDY 68 61 77 NW6 29.95R  
ANNAPOLIS CLOUDY 73 63 70 N8 29.93R  
FORT MEADE* CLOUDY 63 61 94 CALM 29.96R  
 

 
 
MDZ012-015-019>023-241100-  
MARYLAND EASTERN SHORE  
 
CITY SKY/WX TMP DP RH WIND PRES REMARKS
 
OCEAN CITY PTCLDY 65 64 97 N6 29.91R  
SALISBURY CLOUDY 67 61 81 N8 29.91R  
BAY BRIDGE AP* CLOUDY 73 59 60 N9 29.93R  
CAMBRIDGE* CLOUDY 68 63 83 N3 29.92R  
EASTON* MOCLDY 68 63 83 NE5 29.96R  
 

 
 
MDZ017>025-241100-  
SOUTHERN MARYLAND  
 
CITY SKY/WX TMP DP RH WIND PRES REMARKS
 
PATUXENT RIVER CLOUDY 70 69 97 W3 29.92R  
ST INIGOES CLOUDY 71 68 90 CALM 29.91R  
LEONARDTOWN* CLOUDY 66 63 88 CALM 29.94R  
 

 
 
MDZ003>005-241100-  
NORTH CENTRAL MARYLAND  
 
CITY SKY/WX TMP DP RH WIND PRES REMARKS
 
FREDERICK* CLOUDY 63 63 100 CALM 29.99R  
HAGERSTOWN APT PTCLDY 62 56 80 CALM 29.97R  
WESTMINSTER* CLEAR 63 55 77 CALM 29.97R  
 

 
 
MDZ501>502-241100-  
WESTERN MARYLAND  
 
CITY SKY/WX TMP DP RH WIND PRES REMARKS
 
OAKLAND* CLEAR 54 48 82 W3 30.02R  
CUMBERLAND* CLEAR 55 55 100 N3 30.03S  
 

 
 
VAZ025>031-241100-  
SHENANDOAH VALLEY  
 
CITY SKY/WX TMP DP RH WIND PRES REMARKS
 
WINCHESTER* PTCLDY 61 54 77 SE5 29.97R  
FRONT ROYAL* CLOUDY 63 59 88 CALM 29.96R  
LURAY* CLOUDY 64 61 88 CALM 29.98R  
NEW MARKET* CLOUDY 61 55 82 CALM 29.98R  
STAUNTON* CLOUDY 62 58 87 CALM 30.01R  
WAYNESBORO* CLOUDY 61 60 97 CALM 30.00R  
 

 
 
WVZ021-048>050-054>055-241100-  
EASTERN WEST VIRGINIA PANHANDLE  
 
CITY SKY/WX TMP DP RH WIND PRES REMARKS
 
MARTINSBURG PTCLDY 59 56 89 SE8 29.96R  
PETERSBURG* MOCLDY 58 58 97 CALM 30.00S  
 

 
 
VAZ036>039-050-241100-  
CENTRAL FOOTHILLS  
 
CITY SKY/WX TMP DP RH WIND PRES REMARKS
 
CHARLOTTESVILL CLOUDY 68 67 96 CALM 29.95R FOG  
CULPEPER* CLOUDY 67 59 75 NW5 29.96R  
ORANGE* CLOUDY 68 55 64 CALM 29.95R  
GORDONSVILLE* CLOUDY 65 64 99 CALM 29.95R  
WARRENTON* CLOUDY 69 54 60 NW5 29.95R  
 

 
 
VAZ055>057-241100-  
NORTH AND CENTRAL PIEDMONT  
 
CITY SKY/WX TMP DP RH WIND PRES REMARKS
 
FREDERICKSBRG* CLOUDY 70 60 71 N7 29.92S  
STAFFORD* CLOUDY 65 64 96 N3 29.98R  
 

 
 
NCZ024-NYZ072-PAZ021-071-VAZ022-071-241100-  
OTHER REGIONAL OBSERVATIONS  
 
CITY SKY/WX TMP DP RH WIND PRES REMARKS
 
NEW YORK CITY CLEAR 67 55 65 CALM 29.93R  
PHILADELPHIA MOCLDY 67 55 65 N7 29.93R  
PITTSBURGH PTCLDY 58 57 97 S3 30.00R  
ROANOKE CLOUDY 67 58 72 N6 30.00R  
RICHMOND CLOUDY 69 67 93 N7 29.92R  
RALEIGH CLOUDY 74 72 93 NE7 29.90S  
 

 
 
ANZ530>537-241100-  
MARINE OBSERVATIONS  
 
STATION/POSITION TIME TEMP WIND PRES
 
AIR SEA DIR/SP/G  
(UTC) (F) (DEG/KT/KT) (MB)  
THOMAS PT LIGHT 1000 73 80 350/ 12/ 14 N/A  
BALT KEY BRIDGE 0942 72 350/ 11/ 13 1013.3R  
COVE POINT 0942 76 60/ 11/ 12 1013.7R  
LEWISETTA 0942 76 81 30/ 6/ 9 1012.7R  
SOLOMONS ISLAND 0942 72 81 300/ 2/ 4 N/A  
PINEY POINT 0948 30/ 7/ 8 N/A  
 

 
 
 
 
CLICK HERE TO GO TO PREVIOUS BULLETINS.

The Nexlab VA Page
The Nexlab MD Page
The Nexlab WV Page Main Text Page